Regional Weather Roundup
Issued by NWS

Home | Current Version | Previous Version | Graphics & Text | Print | Product List | Glossary On
Versions: 1 2 3 4 5 6 7 8 9 10 11 12 13 14 15 16 17 18 19 20 21 22 23 24 25 26 27 28
000
ASUS43 KDMX 301307
RWRIA

WEATHER ROUNDUP FOR IOWA
NATIONAL WEATHER SERVICE DES MOINES IA
800 AM CDT THU OCT 30 2014

NOTE: "FAIR" INDICATES FEW OR NO CLOUDS BELOW 12,000 FEET WITH NO
SIGNIFICANT WEATHER AND/OR OBSTRUCTIONS TO VISIBILITY.

* - THESE STATIONS ARE NOT NWS STATIONS...THUS NOT UNDER NWS
QUALITY CONTROL.  THEY ALSO DO NOT REPORT WEATHER SUCH
AS PRECIPITATION OR FOG.

IAZ001>003-012>014-020>022-031>034-043>046-301400-
   NORTHWEST IOWA

CITY           SKY/WX    TMP DP  RH WIND       PRES   REMARKS
CARROLL *      PTCLDY    37  34  87 S5        30.00S WCI  34
CHEROKEE *     PTCLDY    36  34  93 CALM      30.00S
DENISON *      CLEAR     36  34  93 CALM      29.99R
LE MARS *      CLEAR     36  32  87 S3        30.01R
ORANGE CITY *  PTCLDY    39  34  81 NW3       29.99S
SHELDON *      PTCLDY    37  32  81 W5        29.98S WCI  34
SIOUX CITY     CLEAR     32  30  92 NW6       30.03R WCI  26
SPENCER        CLOUDY    41  35  79 SE6       29.99F
STORM LAKE *   CLOUDY    39  34  81 SW6       30.00S WCI  35
$$

IAZ055>058-069>071-079>083-090>094-301400-
   SOUTHWEST IOWA

CITY           SKY/WX    TMP DP  RH WIND       PRES   REMARKS
ATLANTIC *     CLEAR     34  32  93 CALM      30.01S
AUDUBON *      CLEAR     36  28  75 CALM      30.01F
CLARINDA *     CLEAR     36  36 100 CALM      30.02S
COUNCIL BLFS *   N/A     39  36  87 NW5       30.00R
CRESTON *      PTCLDY    37  34  87 E7        30.01S WCI  32
HARLAN  *      CLEAR     34  34 100 CALM      30.04S
LAMONI         MOCLDY    44  36  73 S3        30.00R
RED OAK *      CLEAR     37  34  87 CALM      30.01S
SHENANDOAH *   CLEAR     36  36 100 SW3       30.02R
$$

IAZ047>049-059>061-072>074-084-301400-
   CENTRAL IOWA

CITY           SKY/WX    TMP DP  RH WIND       PRES   REMARKS
AMES           CLOUDY    40  36  86 SE6       30.00F
ANKENY *       CLOUDY    43  37  81 S8        30.00F
CHARITON *     CLOUDY    45  37  76 E5        30.03R
DES MOINES     MOCLDY    44  35  70 SE12      30.02F
GRINNELL*      CLOUDY    41  36  81 SE7       30.06S
KNOXVILLE *    CLOUDY    41  36  81 E6        30.04S
MARSHALLTOWN   CLOUDY    40  36  86 SE10      30.02F WCI  33
PELLA *        CLOUDY    43  36  75 E5        30.06F
PERRY *          N/A     41  37  87 S8        30.00R
$$

IAZ004>006-015-016-023>025-035-036-301400-
   NORTH CENTRAL IOWA

CITY           SKY/WX    TMP DP  RH WIND       PRES   REMARKS
ALGONA *       CLOUDY    43  37  81 E3        30.02S
CLARION *      CLOUDY    41  37  87 CALM      30.02R
ESTHERVILLE    CLOUDY    39  35  86 E6        30.00S WCI  35
FORT DODGE *   MOCLDY    39  36  87 CALM      30.01S
MASON CITY     CLOUDY    37  35  92 E3        30.04S
FOREST CITY *  CLOUDY    39  37  93 CALM      30.03R
IOWA FALLS *     N/A     39  36  87 E5        30.02S
$$

IAZ007>011-017>019-026>030-037>042-050>054-066-301400-
   NORTHEAST IOWA

CITY           SKY/WX    TMP DP  RH WIND       PRES   REMARKS
CEDAR RAPIDS   CLOUDY    39  35  86 S6        30.08S WCI  35
CHARLES CITY * CLOUDY    37  36  93 SE6       30.05S WCI  33
CLINTON *      CLOUDY    34  30  86 CALM      30.13F
DECORAH *      PTCLDY    34  32  93 SE3       30.06S
DUBUQUE        CLOUDY    35  33  92 S5        30.10R WCI  31
MONTICELLO *   CLOUDY    36  34  93 CALM      30.10R
OELWEIN *      CLOUDY    39  36  87 SE6       30.07S WCI  35
WATERLOO       MOCLDY    39  34  82 SE6       30.05S WCI  35
$$

IAZ064-065-067-068-078-301400-
   EAST CENTRAL IOWA

CITY           SKY/WX    TMP DP  RH WIND       PRES   REMARKS
DAVENPORT      MOCLDY    37  33  85 SE6       30.10F WCI  32
IOWA CITY      CLOUDY    36  34  92 SE3       30.10F
MT. PLEASANT * CLOUDY    39  36  87 SE5       30.09F
MUSCATINE *    MOCLDY    34  32  93 CALM      30.11S
QUAD CITIES    MOCLDY    34  31  88 E3        30.10F
$$

IAZ062-063-075>077-085>089-095>099-301400-
   SOUTHEAST IOWA

CITY           SKY/WX    TMP DP  RH WIND       PRES   REMARKS
BURLINGTON     CLOUDY    39  35  86 S5        30.10S
FAIRFIELD *    CLOUDY    41  36  81 S8        30.08R
FORT MADISON * CLOUDY    43  37  81 S6        30.10S
KEOKUK *       MIX PCPN  43  36  75 SE5       30.09S
OSKALOOSA *    CLOUDY    39  36  87 E5        30.07R
CENTERVILLE *  CLEAR     45  36  70 NE6       30.03F
OTTUMWA        CLOUDY    43  35  73 SE7       30.06S
WASHINGTON *   CLOUDY    41  39  93 SE7       30.08F
$$

ABBREVIATIONS USED IN REMARKS
   TC - TEMPERATURES IN CELSIUS
  WCI - WIND CHILL INDEX
   HX - HEAT INDEX
  VSB - VISIBILITY
$$




USA.gov is the U.S. government's official web portal to all federal, state and local government web resources and services.